Location: Dealu Mare
(46.0500°N, 22.8167°E)
Time: 21:27:22
(UTC+00:00)

Cosmos 1833 Rocket - Pass Details

Date: 15 January 2026
Orbit: 831 x 839 km, 71.0° (Epoch: 10 February)

Event Time Altitude Azimuth Distance (km) Brightness Sun altitude
Exits shadow 03:27:38 84° 288° (WNW) 847 2.5 -27.1°
Maximum altitude 03:27:47 85° 245° (WSW) 844 2.5 -27.1°
Drops below altitude 10° 03:33:23 10° 158° (SSE) 2,438 5.4 -26.1°
Sets 03:35:48 0° 158° (SSE) 3,366 6.2 -25.7°
